Weather History for Cumberland, MD

Change the Weather History Date:

Friday, August 2, 2013

  Actual Average (KMRB) Record (KMRB)
Temperature  
Mean Temperature 70 °F 74 °F  
Max Temperature 82 °F 85 °F 103 °F (1991)
Min Temperature 59 °F 63 °F 51 °F (1992)
Degree Days  
Heating Degree Days 0 0  
Month to date heating degree days 0  
Since 1 June heating degree days 25  
Since 1 July heating degree days 1  
Cooling Degree Days 6 9  
Month to date cooling degree days 18  
Year to date cooling degree days 561  
Since 1 June cooling degree days 504  
Growing Degree Days 20 (Base 50)    
Moisture  
Dew Point 55 °F    
Average Humidity 63    
Maximum Humidity 100    
Minimum Humidity 30    
Precipitation  
Precipitation 0.00 in 0.11 in 3.00 in (1946)
Month to date precipitation 0.22  
Year to date precipitation 23.38  
Sea Level Pressure  
Sea Level Pressure 30.00 in    
Wind  
Wind Speed 3 mph (WSW)    
Max Wind Speed 14 mph    
Max Gust Speed 22 mph    
Visibility 8 miles    
Events      
T = Trace of Precipitation, MM = Missing Value Source: NWS Daily Summary

Daily Weather History Graph

Daily Weather History Graph

Search for Another Location

Airport:

Trip Planner

Search our weather history database for the weather conditions in past years. The results will help you decide how hot, cold, wet, or windy it might be!

Date:

Astronomy

Aug. 02, 2013 Rise Set
Actual Time 6:15 AM EDT 8:26 PM EDT
Civil Twilight 5:45 AM EDT 8:56 PM EDT
Nautical Twilight 5:08 AM EDT 9:33 PM EDT
Astronomical Twilight 4:28 AM EDT 10:13 PM EDT
Moon 2:35 AM EDT (8/2) 5:22 PM EDT (8/2)
Length of Visible Light 15h 10m
Length of Day
14h 11m
Waning Crescent, 16% of the Moon is Illuminated
Aug 2
Waning Crescent
Aug 6
New
Aug 14
First Quarter
Aug 20
Full
Aug 28
Last Quarter

Hourly Weather History & Observations

Time (EDT) Temp. Dew Point Humidity Pressure Visibility Wind Dir Wind Speed Gust Speed Precip Events Conditions
12:15 AM 64.4 °F 62.6 °F 94% 29.96 in 10.0 mi Calm Calm - N/A   Clear
12:35 AM 64.4 °F 62.6 °F 94% 29.97 in 10.0 mi Calm Calm - N/A   Clear
12:55 AM 62.6 °F 60.8 °F 94% 29.96 in 10.0 mi Calm Calm - N/A   Clear
1:15 AM 62.6 °F 60.8 °F 94% 29.96 in 7.0 mi Calm Calm - N/A   Clear
1:35 AM 62.6 °F 60.8 °F 94% 29.96 in 10.0 mi Calm Calm - N/A   Clear
1:55 AM 62.6 °F 60.8 °F 94% 29.97 in 7.0 mi Calm Calm - N/A   Clear
2:15 AM 60.8 °F 60.8 °F 100% 29.96 in 7.0 mi Calm Calm - N/A   Clear
2:35 AM 62.6 °F 60.8 °F 94% 29.96 in 7.0 mi Calm Calm - N/A   Clear
2:55 AM 60.8 °F 60.8 °F 100% 29.95 in 4.0 mi Calm Calm - N/A   Clear
3:15 AM 60.8 °F 59.0 °F 94% 29.96 in 7.0 mi Calm Calm - N/A   Scattered Clouds
3:35 AM 60.8 °F 59.0 °F 94% 29.96 in 7.0 mi Calm Calm - N/A   Scattered Clouds
3:55 AM 60.8 °F 59.0 °F 94% 29.97 in 7.0 mi Calm Calm - N/A   Clear
4:15 AM 60.8 °F 59.0 °F 94% 29.97 in 7.0 mi Calm Calm - N/A   Clear
4:35 AM 59.0 °F 57.2 °F 94% 29.97 in 5.0 mi Calm Calm - N/A   Clear
4:55 AM 59.0 °F 59.0 °F 100% 29.97 in 3.0 mi Calm Calm - N/A   Clear
5:15 AM 59.0 °F 59.0 °F 100% 29.99 in 3.0 mi Calm Calm - N/A   Unknown
5:35 AM 59.0 °F 57.2 °F 94% 29.98 in 5.0 mi Calm Calm - N/A   Clear
5:55 AM 59.0 °F 59.0 °F 100% 29.98 in 4.0 mi Calm Calm - N/A   Clear
6:15 AM 59.0 °F 59.0 °F 100% 29.99 in 5.0 mi Calm Calm - N/A   Scattered Clouds
6:35 AM 59.0 °F 57.2 °F 94% 30.00 in 1.2 mi Calm Calm - N/A   Mostly Cloudy
6:55 AM 59.0 °F 59.0 °F 100% 30.01 in 0.2 mi Calm Calm - N/A   Overcast
7:15 AM 59.0 °F 59.0 °F 100% 30.02 in 3.0 mi Calm Calm - N/A   Unknown
7:35 AM 60.8 °F 60.8 °F 100% 30.02 in 5.0 mi Calm Calm - N/A   Clear
7:56 AM 60.8 °F 60.8 °F 100% 30.03 in 7.0 mi Calm Calm - N/A   Scattered Clouds
8:16 AM 62.6 °F 60.8 °F 94% 30.03 in 7.0 mi Calm Calm - N/A   Clear
8:36 AM 64.4 °F 60.8 °F 88% 30.02 in 7.0 mi Calm Calm - N/A   Clear
8:56 AM 66.2 °F 60.8 °F 83% 30.02 in 10.0 mi Calm Calm - N/A   Clear
9:16 AM 69.8 °F 62.6 °F 78% 30.02 in 10.0 mi Calm Calm - N/A   Clear
9:36 AM 69.8 °F 62.6 °F 78% 30.02 in 10.0 mi Calm Calm - N/A   Clear
9:56 AM 71.6 °F 62.6 °F 73% 30.01 in 10.0 mi Calm Calm - N/A   Clear
10:16 AM 73.4 °F 62.6 °F 69% 30.02 in 10.0 mi Calm Calm - N/A   Clear
10:36 AM 77.0 °F 53.6 °F 44% 30.01 in 10.0 mi WNW 6.9 mph - N/A   Clear
10:56 AM 77.0 °F 51.8 °F 41% 30.02 in 10.0 mi West 6.9 mph - N/A   Clear
11:16 AM 77.0 °F 53.6 °F 44% 30.03 in 10.0 mi WNW 6.9 mph - N/A   Clear
11:36 AM 78.8 °F 51.8 °F 39% 30.03 in 10.0 mi West 8.1 mph - N/A   Clear
11:56 AM 78.8 °F 51.8 °F 39% 30.04 in 10.0 mi West 9.2 mph - N/A   Scattered Clouds
12:16 PM 80.6 °F 51.8 °F 37% 30.03 in 10.0 mi WSW 13.8 mph 17.3 mph N/A   Scattered Clouds
12:36 PM 80.6 °F 50.0 °F 34% 30.01 in 10.0 mi West 5.8 mph - N/A   Scattered Clouds
12:56 PM 80.6 °F 50.0 °F 34% 30.02 in 10.0 mi WSW 13.8 mph 17.3 mph N/A   Scattered Clouds
1:16 PM 80.6 °F 50.0 °F 34% 30.02 in 10.0 mi WNW 4.6 mph - N/A   Scattered Clouds
1:36 PM 82.4 °F 48.2 °F 30% 30.02 in 10.0 mi West 12.7 mph 18.4 mph N/A   Scattered Clouds
1:56 PM 80.6 °F 48.2 °F 32% 30.01 in 10.0 mi West 6.9 mph 16.1 mph N/A   Scattered Clouds
2:16 PM 82.4 °F 50.0 °F 32% 30.01 in 10.0 mi WNW 9.2 mph - N/A   Scattered Clouds
2:36 PM 82.4 °F 48.2 °F 30% 30.02 in 10.0 mi WSW 11.5 mph 18.4 mph N/A   Clear
2:56 PM 82.4 °F 48.2 °F 30% 30.02 in 10.0 mi NW 8.1 mph 17.3 mph N/A   Clear
3:16 PM 82.4 °F 48.2 °F 30% 30.01 in 10.0 mi WNW 10.4 mph 16.1 mph N/A   Scattered Clouds
3:36 PM 82.4 °F 50.0 °F 32% 30.01 in 10.0 mi West 9.2 mph 19.6 mph N/A   Clear
3:56 PM 82.4 °F 50.0 °F 32% 30.01 in 10.0 mi West 10.4 mph 17.3 mph N/A   Scattered Clouds
4:16 PM 82.4 °F 50.0 °F 32% 30.01 in 10.0 mi WNW 8.1 mph 16.1 mph N/A   Scattered Clouds
4:37 PM 82.4 °F 50.0 °F 32% 30.01 in 10.0 mi WNW 8.1 mph - N/A   Scattered Clouds
4:57 PM 82.4 °F 50.0 °F 32% 30.00 in 10.0 mi West 13.8 mph - N/A   Scattered Clouds
5:17 PM 80.6 °F 50.0 °F 34% 29.99 in 10.0 mi WNW 5.8 mph 9.2 mph N/A   Clear
5:37 PM 82.4 °F 50.0 °F 32% 29.99 in 10.0 mi WSW 9.2 mph 18.4 mph N/A   Clear
5:57 PM 82.4 °F 50.0 °F 32% 29.98 in 10.0 mi WNW 9.2 mph - N/A   Clear
6:17 PM 80.6 °F 50.0 °F 34% 29.99 in 10.0 mi WSW 5.8 mph 19.6 mph N/A   Clear
6:37 PM 82.4 °F 50.0 °F 32% 29.98 in 10.0 mi West 6.9 mph 21.9 mph N/A   Clear
6:57 PM 80.6 °F 50.0 °F 34% 29.98 in 10.0 mi WSW 6.9 mph 19.6 mph N/A   Clear
7:17 PM 78.8 °F 50.0 °F 36% 29.99 in 10.0 mi West 6.9 mph - N/A   Clear
7:37 PM 78.8 °F 51.8 °F 39% 30.00 in 10.0 mi WSW 5.8 mph 16.1 mph N/A   Clear
7:57 PM 78.8 °F 51.8 °F 39% 29.99 in 10.0 mi SSW 9.2 mph - N/A   Clear
8:17 PM 77.0 °F 53.6 °F 44% 29.99 in 10.0 mi SSW 5.8 mph 16.1 mph N/A   Clear
8:37 PM 77.0 °F 53.6 °F 44% 30.00 in 10.0 mi SSW 4.6 mph - N/A   Clear
8:57 PM 75.2 °F 53.6 °F 47% 30.00 in 10.0 mi South 4.6 mph - N/A   Clear
9:17 PM 73.4 °F 53.6 °F 50% 30.01 in 10.0 mi South 4.6 mph - N/A   Clear
9:37 PM 71.6 °F 55.4 °F 57% 29.99 in 10.0 mi SE 4.6 mph - N/A   Clear
9:57 PM 71.6 °F 55.4 °F 57% 30.01 in 10.0 mi SSE 4.6 mph - N/A   Clear
10:17 PM 71.6 °F 55.4 °F 57% 30.02 in 10.0 mi Calm Calm - N/A   Clear
10:37 PM 71.6 °F 55.4 °F 57% 30.02 in 10.0 mi Calm Calm - N/A   Clear
10:57 PM 69.8 °F 55.4 °F 60% 30.03 in 10.0 mi South 3.5 mph - N/A   Clear
11:17 PM 69.8 °F 55.4 °F 60% 30.03 in 10.0 mi SSE 3.5 mph - N/A   Clear
11:37 PM 69.8 °F 57.2 °F 64% 30.02 in 10.0 mi SSE 4.6 mph - N/A   Clear
11:57 PM 69.8 °F 57.2 °F 64% 30.02 in 10.0 mi SE 5.8 mph - N/A   Clear